{"data":{"norad_id":59643,"epoch":"2026-09-21T06:53:51.102528Z","epoch_age_seconds":100101,"freshness":"FRESH","line1":"1 59643U 24082N   26264.28739702  .00000107  00000+0  13397-4 0  9995","line2":"2 59643  43.0014 115.3665 0000628   6.5080 353.5780 15.27581108134820","mean_motion":15.27581108,"eccentricity":6.28e-5,"inclination_deg":43.0014,"raan_deg":115.3665,"arg_perigee_deg":6.508,"mean_anomaly_deg":353.578,"bstar":1.3397e-5,"rev_number":13482,"period_min":94.266680339176,"perigee_km":482.61489601258,"apogee_km":483.47666056953,"semimajor_km":6861.1827782911,"source":"CELESTRAK","updated_at":"2026-09-22T09:00:49.021083Z"}}